Wind_Speed
31 30 28 27 27 26 25 24 23 23 23 22 21 19 16 14 11 8 7 6 5 5 6 7 7 8 9 9 8 6 6 5 4 5 6 7 7 8 8 7 7 6 6 6
32 30 29 29 29 28 27 25 24 25 25 25 23 21 19 16 13 10 8 7 6 6 6 6 7 8 9 10 9 8 6 6 5 6 7 8 8 8 9 9 9 8 7 7
32 30 31 31 30 29 28 27 26 26 27 26 24 23 21 17 15 12 10 8 7 7 7 7 8 9 10 10 9 8 7 6 6 7 7 8 9 9 9 9 9 9 9 9
33 32 32 32 31 30 28 27 28 28 28 28 26 25 21 19 17 14 12 10 10 9 9 8 8 9 10 10 10 10 8 8 7 7 7 8 9 9 9 9 10 10 10 9
33 32 33 32 31 30 29 29 30 30 30 30 28 27 23 21 18 15 13 12 11 11 10 10 10 11 11 10 11 12 11 10 10 8 8 8 9 9 9 9 10 10 10 10
34 33 33 32 32 32 31 31 31 31 31 31 29 28 25 21 18 16 14 13 12 12 12 11 11 12 12 12 12 13 11 10 10 9 8 8 8 9 9 10 11 11 11 12
35 34 34 33 33 33 33 32 32 33 32 31 29 29 25 21 19 17 15 14 13 13 12 11 13 13 13 13 13 13 12 11 10 10 10 10 9 10 11 11 12 12 12 12
35 34 34 34 33 33 33 33 33 33 32 30 28 29 25 21 19 18 18 16 15 14 12 12 13 13 13 13 13 13 12 12 11 11 11 11 10 11 11 12 13 12 13 13
34 33 33 32 32 33 32 33 32 33 33 31 30 28 25 21 20 19 19 19 17 15 13 13 13 13 13 13 13 13 13 12 12 12 11 10 10 11 12 13 13 13 13 13
34 33 33 33 33 34 33 32 33 33 33 32 30 28 25 22 21 21 20 19 17 16 14 14 14 14 13 13 13 13 12 12 12 12 12 12 12 12 13 13 13 13 13 13
33 33 33 34 34 33 33 33 33 33 33 32 30 27 24 22 21 20 19 18 17 15 15 15 14 14 14 13 14 13 12 12 11 11 12 13 14 13 13 13 14 14 14 14
33 33 33 33 33 33 33 33 33 33 32 31 30 27 24 22 21 20 19 17 17 16 16 15 15 14 15 14 14 13 13 13 13 13 13 14 14 13 13 13 14 15 15 15
32 32 33 33 33 33 33 32 32 32 32 32 30 27 24 22 20 19 19 18 17 16 16 16 16 15 15 15 14 14 14 14 14 15 14 14 14 14 14 14 15 15 15 15
31 30 31 31 31 31 31 31 32 32 32 31 29 27 25 23 21 20 19 18 17 17 17 16 15 15 16 16 16 16 16 16 16 16 16 15 15 14 13 14 15 15 15 15
30 29 29 30 31 31 31 31 31 31 31 30 29 27 24 23 21 20 18 17 17 17 16 15 15 15 16 16 17 16 16 16 15 15 15 15 15 14 14 14 15 16 16 16
30 29 29 29 30 31 31 31 31 30 30 29 28 27 24 23 21 19 19 17 15 15 15 15 15 16 15 15 16 16 16 16 15 14 14 15 15 14 14 15 15 16 16 16
30 29 29 29 29 30 31 31 31 30 29 28 27 25 24 23 21 20 19 18 17 15 14 14 15 16 15 15 16 16 16 16 15 15 14 14 15 15 14 15 15 15 15 16
30 29 29 29 29 31 30 29 30 29 28 27 26 24 24 24 22 21 20 19 19 17 16 16 16 15 15 15 15 16 15 15 14 14 14 15 16 16 15 16 16 16 16 17
30 30 30 30 30 30 30 29 28 27 26 26 25 24 24 23 23 22 21 20 20 19 18 17 17 16 16 15 16 15 15 15 15 15 15 15 16 16 16 16 16 17 18 18
31 31 31 30 31 31 28 28 28 27 27 25 25 24 23 23 23 22 21 21 20 20 18 17 17 16 16 16 15 15 14 15 16 16 16 16 17 17 17 17 17 18 19 20
31 32 31 31 30 30 28 28 28 28 26 25 25 24 23 23 23 23 23 22 21 21 19 18 17 17 17 16 15 15 15 15 16 16 17 17 16 17 17 18 19 20 20 21
32 31 31 30 31 30 28 27 27 27 26 25 24 24 24 24 24 24 23 22 22 21 20 19 19 18 18 17 16 15 14 14 15 15 16 16 16 17 18 20 21 21 22 23
32 32 31 31 30 28 27 27 27 27 26 25 25 24 24 24 23 23 23 21 20 20 19 19 19 18 18 17 15 15 14 14 15 15 15 16 16 18 19 20 20 21 22 22
33 31 30 30 29 28 27 27 27 27 27 26 26 25 25 25 24 23 22 22 22 21 20 19 19 18 18 17 16 16 15 16 16 16 16 17 17 18 19 19 19 19 20 20
33 32 30 29 28 27 26 27 28 28 28 27 27 26 26 26 25 25 24 23 22 21 20 20 19 18 17 17 16 16 16 17 17 17 17 18 18 18 18 18 18 18 19 20
32 32 30 28 27 26 25 25 26 27 27 27 27 26 26 26 26 24 24 23 21 20 19 18 18 18 17 16 16 16 16 17 17 18 18 18 18 18 18 19 19 20 20 21
Wind_Direction
229 228 227 228 228 228 228 228 230 235 242 247 251 252 255 256 257 262 272 286 292 301 311 307 307 315 319 317 321 313 301 297 264 248 245 248 247 233 229 231 241 250 252 260
228 227 225 225 226 226 226 227 228 232 238 243 247 250 255 257 257 259 269 279 295 306 303 300 302 307 310 311 313 314 302 300 284 270 258 247 247 241 240 240 243 249 257 266
228 226 225 225 226 226 226 226 227 230 236 241 245 249 252 254 251 251 259 269 281 293 298 287 296 301 304 303 299 298 297 297 289 277 263 252 247 246 246 248 248 251 256 265
225 223 223 224 225 226 226 226 227 230 233 238 244 246 249 254 254 254 259 266 276 283 286 284 290 293 302 301 289 293 286 279 277 277 265 262 253 246 245 247 249 252 256 261
224 223 222 223 225 226 225 226 227 229 233 238 244 247 249 251 254 257 261 265 271 275 274 273 276 281 288 292 289 284 280 272 270 275 270 266 258 252 249 248 250 253 258 264
222 221 221 221 222 223 223 226 228 231 235 239 242 247 249 251 254 257 259 260 266 271 270 270 270 278 281 282 284 287 281 276 274 273 271 266 260 257 254 253 254 258 262 265
222 221 221 221 222 222 223 225 228 231 235 240 242 246 249 250 253 256 257 258 263 267 268 270 273 275 278 278 279 284 278 275 275 269 268 262 258 256 253 253 258 262 266 268
222 221 222 222 223 224 225 227 230 234 237 241 243 245 249 249 252 255 257 260 262 263 265 268 273 276 277 276 279 282 278 275 273 268 266 263 262 264 264 259 260 263 268 271
220 220 220 220 221 223 224 226 229 233 238 241 243 246 247 248 251 256 258 259 259 259 261 267 267 271 273 271 275 279 282 276 273 267 267 262 262 266 266 264 262 264 267 272
218 218 218 218 219 220 222 226 229 233 237 241 244 245 246 248 251 258 259 258 256 255 259 265 266 268 270 270 271 274 280 278 273 266 261 259 260 263 264 265 265 265 267 271
217 217 217 218 219 222 224 226 229 233 237 241 245 246 248 249 251 254 255 252 252 253 258 263 264 264 266 269 269 267 273 276 277 271 267 264 262 262 262 264 266 266 267 270
216 216 216 218 219 222 224 227 230 233 238 242 245 246 246 247 248 250 251 251 252 256 258 262 263 264 264 263 265 266 269 273 272 272 271 267 263 262 264 265 265 265 268 270
216 216 215 216 218 221 225 227 229 232 237 242 245 246 244 242 244 248 250 252 255 257 262 260 262 264 262 261 261 264 269 272 273 271 268 265 265 263 265 265 266 269 272 273
215 216 216 218 220 223 226 227 230 233 237 240 244 246 243 242 243 246 249 251 254 258 262 258 259 262 263 263 260 262 267 271 272 272 271 266 264 263 267 265 266 269 271 273
215 214 214 216 218 222 225 228 231 234 237 240 242 244 243 241 242 246 247 249 254 256 258 258 258 260 261 261 261 262 267 267 271 273 271 265 263 264 267 268 268 270 270 272
216 216 216 217 219 221 224 227 230 234 237 239 240 241 240 239 242 242 243 245 247 249 254 259 259 257 257 260 258 262 262 262 267 272 272 264 263 268 271 270 272 273 274 274
218 219 219 220 221 222 224 226 230 234 237 238 239 239 238 239 239 238 239 242 245 250 257 262 264 258 257 261 262 263 260 260 264 269 270 266 269 272 271 275 275 275 276 277
221 221 222 222 222 225 226 228 232 236 237 237 238 237 237 238 238 236 238 240 246 253 258 261 262 260 260 263 265 265 262 260 264 270 273 271 272 273 275 276 273 275 276 277
224 223 223 224 225 228 228 229 232 235 237 237 236 236 236 235 236 237 239 241 245 253 259 261 261 264 267 268 265 264 263 264 266 269 272 272 274 274 275 276 272 273 276 277
225 224 225 227 228 229 229 231 232 234 236 236 236 236 236 234 234 237 240 242 246 252 258 261 265 268 268 270 265 259 261 265 267 269 272 272 274 274 276 278 278 277 278 279
226 226 227 229 231 233 231 232 233 235 235 235 236 237 236 234 234 236 239 243 247 253 258 263 266 268 268 270 265 260 260 264 268 270 274 275 275 274 277 279 280 280 279 280
226 228 229 232 234 234 233 234 235 235 233 233 235 237 236 235 237 238 241 245 248 252 257 261 266 267 267 266 265 262 262 264 268 270 274 276 278 278 279 281 281 279 280 279
226 229 231 234 236 236 236 236 234 233 233 232 233 233 235 236 237 239 242 244 245 251 256 261 263 265 264 264 265 264 262 265 270 274 278 279 281 282 281 283 282 280 280 280
226 229 232 235 237 237 236 234 235 234 233 232 234 234 234 234 235 240 242 244 246 250 256 258 258 260 260 262 264 264 264 266 269 274 277 279 283 285 285 284 284 283 284 283
227 229 231 234 235 236 235 235 235 234 233 233 233 233 234 234 237 238 241 245 244 248 252 254 256 257 259 260 262 263 263 267 270 273 276 279 282 284 287 286 284 283 286 288
226 228 229 230 231 232 233 234 234 234 231 232 232 232 234 235 236 237 240 242 243 245 251 251 252 256 257 256 257 260 265 270 271 272 274 278 281 283 284 284 285 286 288 289
Height
5852 5857 5862 5866 5869 5873 5876 5879 5881 5883 5884 5886 5888 5890 5892 5894 5895 5897 5897 5897 5897 5897 5897 5897 5897 5896 5896 5895 5895 5894 5893 5893 5893 5894 5894 5895 5895 5896 5896 5897 5898 5898 5899 5899
5848 5852 5857 5860 5863 5867 5871 5875 5878 5879 5880 5882 5885 5887 5889 5891 5893 5895 5896 5896 5896 5896 5896 5896 5896 5896 5895 5895 5894 5893 5892 5892 5892 5892 5893 5893 5894 5894 5895 5895 5896 5897 5897 5897
5842 5849 5851 5855 5859 5863 5867 5871 5874 5875 5877 5879 5882 5884 5886 5888 5890 5892 5893 5894 5894 5894 5894 5894 5894 5894 5894 5893 5893 5893 5892 5891 5891 5891 5891 5891 5892 5892 5893 5894 5894 5895 5895 5895
5835 5841 5845 5850 5854 5858 5863 5867 5869 5871 5873 5875 5878 5880 5884 5885 5887 5890 5891 5892 5892 5892 5892 5892 5892 5892 5892 5891 5891 5891 5890 5890 5889 5889 5889 5889 5889 5890 5890 5891 5892 5893 5893 5893
5830 5835 5840 5845 5850 5854 5858 5861 5864 5866 5868 5871 5874 5877 5881 5882 5884 5887 5888 5889 5889 5889 5890 5890 5890 5890 5889 5889 5889 5888 5888 5887 5887 5887 5887 5887 5887 5888 5888 5890 5890 5891 5891 5891
5824 5829 5834 5839 5844 5848 5852 5856 5859 5861 5864 5867 5870 5873 5876 5879 5882 5884 5885 5886 5886 5886 5887 5887 5887 5887 5887 5886 5886 5885 5884 5884 5884 5885 5885 5886 5886 5886 5887 5888 5888 5889 5889 5889
5818 5823 5828 5834 5838 5842 5846 5851 5854 5856 5858 5862 5867 5868 5873 5876 5878 5880 5881 5882 5883 5883 5884 5884 5884 5884 5884 5883 5883 5882 5882 5882 5881 5882 5882 5883 5884 5884 5885 5886 5886 5886 5886 5886
5813 5818 5823 5829 5833 5838 5842 5846 5850 5853 5855 5859 5862 5864 5869 5873 5874 5876 5877 5879 5879 5880 5880 5881 5881 5881 5880 5880 5880 5879 5878 5879 5878 5878 5879 5880 5881 5882 5882 5883 5883 5883 5883 5883
5808 5814 5819 5824 5828 5833 5836 5840 5845 5848 5851 5854 5857 5861 5865 5868 5870 5872 5874 5875 5876 5877 5877 5878 5878 5877 5877 5877 5877 5877 5876 5876 5875 5874 5875 5877 5879 5879 5879 5880 5880 5880 5880 5880
5802 5808 5813 5818 5822 5827 5832 5836 5840 5843 5846 5849 5853 5856 5861 5864 5866 5868 5869 5871 5872 5873 5874 5875 5874 5874 5874 5874 5874 5874 5873 5873 5873 5872 5874 5875 5876 5876 5876 5877 5877 5878 5878 5877
5797 5803 5808 5813 5817 5822 5827 5831 5834 5838 5842 5845 5848 5855 5857 5860 5862 5864 5865 5867 5868 5870 5871 5871 5871 5871 5871 5871 5871 5871 5871 5871 5871 5871 5872 5872 5872 5873 5873 5873 5874 5874 5874 5874
5792 5797 5802 5808 5813 5817 5822 5826 5830 5834 5837 5840 5844 5852 5853 5856 5857 5860 5861 5863 5864 5865 5866 5867 5868 5868 5868 5868 5868 5868 5869 5869 5869 5868 5868 5869 5869 5870 5870 5870 5870 5871 5871 5870
5787 5793 5798 5803 5809 5813 5816 5821 5825 5829 5833 5835 5840 5847 5848 5851 5853 5855 5857 5858 5860 5861 5862 5863 5864 5864 5864 5864 5865 5865 5865 5866 5865 5865 5865 5865 5865 5866 5866 5867 5867 5867 5867 5867
5783 5789 5795 5800 5804 5808 5812 5816 5820 5824 5827 5831 5835 5840 5843 5846 5849 5851 5853 5854 5856 5857 5858 5859 5860 5860 5861 5860 5861 5861 5861 5861 5861 5861 5860 5861 5861 5862 5862 5863 5863 5863 5863 5863
5778 5784 5789 5794 5799 5803 5808 5812 5815 5819 5823 5827 5831 5834 5839 5842 5845 5847 5848 5850 5852 5853 5854 5855 5856 5857 5857 5857 5857 5857 5857 5857 5857 5857 5856 5857 5858 5858 5858 5858 5859 5859 5858 5858
5774 5780 5784 5789 5794 5798 5802 5806 5810 5814 5818 5821 5825 5830 5834 5837 5840 5842 5844 5846 5848 5849 5850 5851 5852 5852 5853 5853 5853 5854 5854 5854 5854 5854 5854 5854 5854 5854 5854 5854 5854 5854 5854 5854
5770 5775 5780 5785 5789 5793 5797 5802 5805 5809 5813 5817 5821 5826 5829 5832 5835 5838 5840 5842 5844 5845 5847 5848 5848 5848 5848 5849 5849 5850 5850 5850 5850 5850 5850 5851 5851 5851 5851 5850 5850 5850 5850 5850
5766 5771 5775 5780 5785 5788 5795 5797 5800 5804 5808 5812 5816 5820 5824 5827 5830 5833 5836 5838 5840 5841 5843 5843 5844 5844 5844 5845 5845 5846 5846 5846 5846 5847 5847 5847 5847 5847 5846 5846 5846 5846 5846 5846
5761 5766 5770 5775 5779 5783 5788 5792 5795 5799 5803 5807 5811 5815 5818 5822 5825 5828 5831 5833 5835 5837 5838 5839 5839 5840 5840 5840 5840 5840 5841 5841 5842 5843 5843 5843 5843 5843 5842 5842 5842 5842 5841 5841
5756 5760 5765 5769 5773 5777 5784 5787 5790 5795 5798 5803 5806 5810 5813 5817 5821 5824 5826 5828 5830 5832 5833 5834 5835 5835 5836 5836 5836 5836 5837 5837 5838 5838 5839 5839 5839 5838 5838 5838 5837 5837 5836 5835
5750 5755 5759 5764 5767 5772 5778 5781 5786 5791 5795 5798 5801 5804 5808 5812 5816 5819 5821 5823 5825 5826 5828 5829 5830 5830 5831 5831 5831 5831 5832 5832 5833 5833 5834 5834 5834 5833 5833 5832 5832 5831 5831 5830
5745 5750 5754 5758 5762 5769 5772 5776 5780 5784 5789 5792 5796 5799 5803 5806 5810 5812 5815 5817 5819 5821 5823 5824 5825 5825 5826 5826 5826 5826 5827 5828 5828 5829 5829 5829 5829 5828 5828 5827 5826 5825 5825 5824
5740 5745 5749 5754 5759 5763 5766 5770 5774 5778 5782 5786 5790 5794 5797 5800 5803 5806 5809 5812 5814 5815 5817 5818 5819 5820 5820 5821 5821 5822 5823 5824 5824 5824 5824 5824 5824 5823 5822 5822 5821 5820 5819 5818
5734 5739 5743 5748 5752 5757 5761 5764 5768 5772 5776 5780 5784 5788 5791 5795 5798 5801 5804 5806 5808 5810 5812 5813 5814 5815 5815 5816 5817 5817 5818 5819 5819 5820 5820 5820 5819 5818 5817 5816 5815 5814 5813 5812
5728 5733 5737 5742 5747 5751 5755 5758 5762 5766 5771 5775 5778 5782 5785 5789 5792 5795 5798 5800 5802 5804 5806 5807 5809 5809 5810 5811 5812 5813 5814 5815 5815 5815 5815 5815 5814 5813 5812 5811 5810 5809 5808 5807
5722 5727 5732 5737 5742 5746 5750 5753 5757 5760 5764 5768 5772 5776 5779 5783 5786 5789 5792 5794 5797 5799 5800 5802 5803 5805 5805 5806 5807 5808 5809 5810 5810 5810 5810 5809 5809 5808 5807 5806 5805 5803 5803 5801